Terminal Aerodrome Forecast
Issued by NWS Billings, MT

Home | Current Version | Previous Version | Text Only | Print | Product List | Glossary On
Versions: 1 2 3 4 5 6 7 8 9 10 11 12 13
000
FTUS45 KBYZ 262321
TAFSHR
TAF
KSHR 262321Z 2700/2724 VRB06KT P6SM VCTS SCT090CB BKN150
     FM270400 VRB04KT P6SM VCSH BKN080
     FM270800 VRB04KT P6SM SCT100=

USA.gov is the U.S. government's official web portal to all federal, state and local government web resources and services.